FLOCK 4V 2

导读

FLOCK 4V 2是美国Planet公司Flock系列星座中的一颗小型商业光学遥感卫星,于美国东部时间2020年9月3日发射入轨。作为SuperDove卫星之一,它配备多光谱传感器,可提供高质量地球观测影像,服务农业监测、灾害评估、环境变化研究等多领域应用,是Planet构建高频次全球覆盖观测网络的重要组成部分。

Basic Information
目录编号:
46321
目录名称:
FLOCK 4V 2
国际标识:
2020-061BB
轨道中心:
EARTH
卫星名称:
FLOCK 4V 2
卫星全名:
--
卫星状态:
已陨落 最后检测时间 2024-02-14
发射日期:
2020-09-03 UTC
国别 :
美国 (US)
星等 :
--
Orbit Information
数据来源 国际轨道数据
星历时间: 2024-02-11T08:48:42+0800
轨道信息已过期884天
半长轴: 6550.561km
偏心率: 0.0009498
轨道倾角: 97.297°
近地点辐角 291.783°
升交点赤经 124.253°
平近点角 68.246°
近地点: 166.204km
远地点: 178.648km
周期: 87.938分钟
每日圈数: 16.375142
Detailed Information
使用方式:
暂无